KUIPER-00567

导读

KUIPER-00567(NORAD编号69626)是亚马逊柯伊伯(Project Kuiper)低轨互联网星座的组成卫星,属于2025年9月25日联合发射联盟(ULA)Atlas V 551火箭执行的KA-03任务部署的27颗卫星之一,为柯伊伯项目第五次发射、第三次Atlas V任务的载荷。该卫星初始被部署至465公里高度,后续将抬升至星座标称的590-630公里低轨,主要承担为全球偏远、网络覆盖不足区域提供高带宽低延迟互联网接入的任务,是亚马逊推进3236颗卫星星座组网、满足FCC 2026年7月前完成半数星座部署要求的重要组成部分,相关应用还将覆盖航空机载连接等场景。

Basic Information
目录编号:
69626
目录名称:
KUIPER-00567
国际标识:
2026-140AL
轨道中心:
EARTH
卫星名称:
KUIPER-00567
卫星全名:
KUIPER-00567
卫星状态:
在轨 (已飞行70 天)
发射日期:
2026-06-17 UTC
国别 :
美国 (US)
星等 :
--
Orbit Information
数据来源 国际轨道数据
星历时间: 2026-08-26T12:00:02+0800
7小时前
查看轨道信息
半长轴: 6897.773km
偏心率: 0.001198
轨道倾角: 51.888°
近地点辐角 45.666°
升交点赤经 60.808°
平近点角 262.320°
近地点: 511.372km
远地点: 527.9km
周期: 95.022分钟
每日圈数: 15.154424
Detailed Information
使用方式:
暂无
2D Orbit Map
3D Orbit Map
Orbit Altitude Analysis Chart
Orbit Inclination Analysis Chart
Orbit Comprehensive Analysis Chart
View Comprehensive Chart